7 * 24
多渠道服务支持
STARLINK-11579是美国SpaceX公司星链星座的成员,于2025年3月3日发射入轨,属于星链低轨互联网星座的扩展组网卫星。它运行在近地轨道,依托星链星座规模化部署,为全球提供高速低延迟宽带服务,重点覆盖地面基础设施缺失的偏远地区,不过其发射也延续了星链项目对太空轨道资源竞争、天文观测干扰的争议,目前已在轨运行超一年,是星链持续扩容全球卫星互联网网络的组成单元。
美国
(US)
| 数据来源 | 国际轨道数据 |
| 星历时间: | 2026-06-14T15:43:09+0800 9小时前 查看轨道信息 |
| 半长轴: | 6734.426km |
| 偏心率: | 0.0001793 |
| 轨道倾角: | 43.001° |
| 近地点辐角 | 275.019° |
| 升交点赤经 | 27.907° |
| 平近点角 | 85.047° |
| 近地点: | 355.081km |
| 远地点: | 357.497km |
| 周期: | 91.666分钟 |
| 每日圈数: | 15.709123 |